Hourly Data Report for November 27, 2014

All times are specified in Local Standard Time (LST). Add 1 hour to adjust for Daylight Saving Time where and when it is observed.

Metadata including Station Name, Province, Latitude, Longitude, Elevation, Climate ID, WMO ID, TC ID
PILGER
SASKATCHEWAN
Latitude: 52°25'00.000" N Longitude: 105°09'00.000" W Elevation: 552.00 m
Climate ID: 4056121 WMO ID: 71655 TC ID: PUN
Hourly Data Report for November 26, 2014
Temp Definition
°C

Dew Point Temp Definition
°C

Rel Hum Definition
%

Wind Dir Definition
10's deg
Wind Spd Definition
km/h

Visibility Definition
km

Stn Press Definition
kPa

Hmdx Definition

Wind Chill Definition

Weather Definition

00:00 -18.9 -20.9 84 32 8 95.91 -25 LegendNANA
01:00 -19.1 -21.4 82 1 14 95.96 -28 LegendNANA
02:00 -19.7 -22.0 82 1 11 96.02 -27 LegendNANA
03:00 -20.4 -22.6 83 2 9 96.07 -27 LegendNANA
04:00 -22.0 -24.5 80 36 9 96.09 -29 LegendNANA
05:00 -21.7 -24.0 82 36 4 96.12 -25 LegendNANA
06:00 -21.5 -23.6 83 3 1 96.16 -22 LegendNANA
07:00 -21.4 -23.5 83 5 2 96.19 -23 LegendNANA
08:00 -22.1 -24.3 82 8 2 96.21 -24 LegendNANA
09:00 -23.3 -25.5 82   0 96.24 LegendNANA
10:00 -22.5 -24.6 84 8 2 96.28 -24 LegendNANA
11:00 -22.7 -25.1 81 0 1 96.30 -24 LegendNANA
12:00 -20.9 -24.9 70 11 3 96.28 -24 LegendNANA
13:00 -19.8 -24.6 66 20 5 96.26 -24 LegendNANA
14:00 -19.1 -23.8 66 20 7 96.26 -25 LegendNANA
15:00 -18.6 -23.9 63 16 6 96.25 -23 LegendNANA
16:00 -20.1 -24.6 68 20 6 96.24 -25 LegendNANA
17:00 -23.3 -25.9 79 18 5 96.24 -28 LegendNANA
18:00 -24.2 -26.6 81 19 5 96.20 -29 LegendNANA
19:00 -24.4 -26.6 82 19 6 96.14 -30 LegendNANA
20:00 -25.2 -27.5 81 19 8 96.08 -32 LegendNANA
21:00 -25.2 -27.6 80 19 5 96.01 -30 LegendNANA
22:00 -24.3 -26.4 82 21 7 95.95 -31 LegendNANA
23:00 -22.8 -25.0 82 18 9 95.82 -30 LegendNANA

Notes on Data Quality.

Legend
  • E = Estimated
  • M = Missing
  • NA = Not Available
  • ‡ = Partner data that is not subject to review by the National Climate Archives